When you browse on this site, cookies collect data to enhance your experience and personalize the content and advertising you see.
Visit our Privacy Policy to learn more. By continuing to use the site, you agree to this use of cookies and data.
  • In United Kingdom
  • List of Countries
  • For 7 days
  • Water Temperature
  • Satellite Maps
  • Weather Map
  • Weather Widgets
  • user-avatar
    Login

    Hourly Weather Quibdó

    Today, 23 April, Tuesday

    Time Temperature Precipitation Wind Pressure Humidity
    00:00 +23°C° 0 mm 0 mps 752 mmHg 88%
    01:00 +23°C° 0 mm 0 mps 752 mmHg 90%
    02:00 +22°C° 0 mm 0 mps 751 mmHg 91%
    03:00 +22°C° 0 mm 0 mps 751 mmHg 92%
    04:00 +22°C° 0 mm 0 mps 751 mmHg 93%
    05:00 +22°C° 0 mm 0 mps 751 mmHg 92%
    06:00 +23°C° 0 mm 0 mps 751 mmHg 90%
    07:00 +23°C° 0 mm 0 mps 751 mmHg 89%
    08:00 +26°C° 0 mm 0 mps 752 mmHg 78%
    09:00 +28°C° 0 mm 0 mps 752 mmHg 68%
    10:00 +33°C° 0 mm 1 mps 752 mmHg 58%
    11:00 +34°C° 0 mm 1 mps 751 mmHg 53%
    12:00 +35°C° 0 mm 1 mps 751 mmHg 48%
    13:00 +37°C° 0 mm 1 mps 750 mmHg 43%
    14:00 +36°C° 0.1 mm 1 mps 749 mmHg 46%
    15:00 +35°C° 0.1 mm 1 mps 749 mmHg 50%
    16:00 +34°C° 0.1 mm 1 mps 748 mmHg 53%
    17:00 +32°C° 0.5 mm 1 mps 749 mmHg 65%
    18:00 +29°C° 0.5 mm 1 mps 749 mmHg 77%
    19:00 +25°C° 0.5 mm 0 mps 750 mmHg 89%
    20:00 +24°C° 0.1 mm 0 mps 750 mmHg 89%
    21:00 +24°C° 0.1 mm 0 mps 751 mmHg 90%
    22:00 +24°C° 0.1 mm 0 mps 752 mmHg 91%
    23:00 +23°C° 0 mm 0 mps 751 mmHg 91%

    Tomorrow, 24 April, Wednesday

    Time Temperature Precipitation Wind Pressure Humidity
    00:00 +23°C° 0 mm 0 mps 751 mmHg 92%
    01:00 +23°C° 0 mm 0 mps 751 mmHg 93%
    02:00 +23°C° 0 mm 0 mps 751 mmHg 93%
    03:00 +23°C° 0 mm 0 mps 751 mmHg 93%
    04:00 +23°C° 0 mm 0 mps 750 mmHg 93%
    05:00 +23°C° 0 mm 0 mps 751 mmHg 93%
    06:00 +23°C° 0 mm 0 mps 751 mmHg 92%
    07:00 +24°C° 0 mm 0 mps 751 mmHg 91%
    08:00 +26°C° 0 mm 0 mps 751 mmHg 82%
    09:00 +30°C° 0 mm 1 mps 752 mmHg 73%
    10:00 +33°C° 0 mm 1 mps 752 mmHg 64%
    11:00 +34°C° 0 mm 1 mps 751 mmHg 58%
    12:00 +35°C° 0 mm 1 mps 750 mmHg 52%
    13:00 +37°C° 0 mm 1 mps 750 mmHg 47%
    14:00 +36°C° 0 mm 1 mps 749 mmHg 50%
    15:00 +35°C° 0 mm 1 mps 748 mmHg 54%
    16:00 +34°C° 0 mm 1 mps 748 mmHg 58%
    17:00 +32°C° 0.4 mm 1 mps 748 mmHg 68%
    18:00 +30°C° 0.4 mm 1 mps 749 mmHg 79%
    19:00 +27°C° 0.4 mm 1 mps 749 mmHg 90%
    20:00 +27°C° 0.6 mm 1 mps 750 mmHg 92%
    21:00 +25°C° 0.6 mm 0 mps 751 mmHg 94%
    22:00 +24°C° 0.6 mm 0 mps 751 mmHg 95%
    23:00 +24°C° 0.9 mm 0 mps 751 mmHg 96%

    Day after tomorrow, 25 April, Thursday

    Time Temperature Precipitation Wind Pressure Humidity
    00:00 +24°C° 0.9 mm 0 mps 751 mmHg 97%
    01:00 +24°C° 0.9 mm 0 mps 751 mmHg 97%
    02:00 +24°C° 1 mm 0 mps 750 mmHg 97%
    03:00 +24°C° 1 mm 0 mps 750 mmHg 97%
    04:00 +24°C° 1 mm 0 mps 750 mmHg 97%
    05:00 +24°C° 1.1 mm 0 mps 750 mmHg 96%
    06:00 +24°C° 1.1 mm 0 mps 751 mmHg 96%
    07:00 +24°C° 1.1 mm 0 mps 751 mmHg 95%
    08:00 +26°C° 0.2 mm 0 mps 751 mmHg 90%
    09:00 +27°C° 0.2 mm 0 mps 752 mmHg 85%
    10:00 +28°C° 0.2 mm 0 mps 752 mmHg 80%
    11:00 +31°C° 1.3 mm 1 mps 751 mmHg 79%
    12:00 +31°C° 1.3 mm 1 mps 751 mmHg 79%
    13:00 +32°C° 1.3 mm 1 mps 750 mmHg 78%
    14:00 +32°C° 1.3 mm 1 mps 749 mmHg 80%
    15:00 +31°C° 1.3 mm 1 mps 749 mmHg 81%
    16:00 +31°C° 1.3 mm 1 mps 748 mmHg 82%
    17:00 +29°C° 2.4 mm 1 mps 749 mmHg 87%
    18:00 +28°C° 2.4 mm 1 mps 750 mmHg 92%
    19:00 +26°C° 2.4 mm 1 mps 750 mmHg 96%
    20:00 +26°C° 3.2 mm 1 mps 751 mmHg 96%
    21:00 +24°C° 3.2 mm 0 mps 752 mmHg 97%
    22:00 +24°C° 3.2 mm 0 mps 752 mmHg 97%
    23:00 +24°C° 1 mm 0 mps 752 mmHg 97%

    26 April, Friday

    Time Temperature Precipitation Wind Pressure Humidity
    00:00 +24°C° 1 mm 0 mps 752 mmHg 97%
    01:00 +23°C° 1 mm 0 mps 751 mmHg 97%
    02:00 +23°C° 1.4 mm 0 mps 751 mmHg 97%
    03:00 +23°C° 1.4 mm 0 mps 751 mmHg 97%
    04:00 +23°C° 1.4 mm 0 mps 751 mmHg 97%
    05:00 +23°C° 0.7 mm 0 mps 751 mmHg 96%
    06:00 +24°C° 0.7 mm 0 mps 752 mmHg 96%
    07:00 +24°C° 0.7 mm 0 mps 752 mmHg 95%
    08:00 +25°C° 0.1 mm 0 mps 752 mmHg 89%
    09:00 +29°C° 0.1 mm 1 mps 753 mmHg 84%
    10:00 +30°C° 0.1 mm 1 mps 753 mmHg 78%
    11:00 +31°C° 0.6 mm 1 mps 752 mmHg 78%
    12:00 +31°C° 0.6 mm 1 mps 751 mmHg 77%
    13:00 +32°C° 0.6 mm 1 mps 751 mmHg 77%
    14:00 +30°C° 1.4 mm 1 mps 750 mmHg 82%
    15:00 +29°C° 1.4 mm 1 mps 750 mmHg 88%
    16:00 +28°C° 1.4 mm 1 mps 750 mmHg 93%
    17:00 +27°C° 0.8 mm 1 mps 750 mmHg 95%
    18:00 +27°C° 0.8 mm 1 mps 751 mmHg 97%
    19:00 +26°C° 0.8 mm 1 mps 751 mmHg 98%
    20:00 +24°C° 0.2 mm 0 mps 752 mmHg 98%
    21:00 +24°C° 0.2 mm 0 mps 752 mmHg 98%
    22:00 +24°C° 0.2 mm 0 mps 753 mmHg 98%
    23:00 +23°C° 0.2 mm 0 mps 752 mmHg 98%

    27 April, Saturday

    Time Temperature Precipitation Wind Pressure Humidity
    00:00 +23°C° 0.2 mm 0 mps 752 mmHg 98%
    01:00 +23°C° 0.2 mm 0 mps 751 mmHg 98%
    02:00 +23°C° 0 mm 0 mps 751 mmHg 98%
    03:00 +23°C° 0 mm 0 mps 751 mmHg 98%
    04:00 +23°C° 0 mm 0 mps 751 mmHg 98%
    05:00 +23°C° 0 mm 0 mps 751 mmHg 97%
    06:00 +23°C° 0 mm 0 mps 751 mmHg 96%
    07:00 +23°C° 0 mm 0 mps 752 mmHg 96%
    08:00 +25°C° 0 mm 0 mps 752 mmHg 89%
    09:00 +27°C° 0 mm 0 mps 752 mmHg 83%
    10:00 +30°C° 0 mm 1 mps 752 mmHg 76%
    11:00 +32°C° 0 mm 1 mps 751 mmHg 68%
    12:00 +34°C° 0 mm 1 mps 750 mmHg 60%
    13:00 +36°C° 0 mm 1 mps 749 mmHg 53%
    14:00 +35°C° 0.7 mm 1 mps 748 mmHg 60%
    15:00 +33°C° 0.7 mm 1 mps 748 mmHg 67%
    16:00 +32°C° 0.7 mm 1 mps 747 mmHg 74%
    17:00 +30°C° 1.2 mm 1 mps 748 mmHg 81%
    18:00 +29°C° 1.2 mm 1 mps 748 mmHg 88%
    19:00 +25°C° 1.2 mm 0 mps 749 mmHg 94%
    20:00 +24°C° 1.1 mm 0 mps 750 mmHg 95%
    21:00 +24°C° 1.1 mm 0 mps 750 mmHg 96%
    22:00 +24°C° 1.1 mm 0 mps 751 mmHg 97%
    23:00 +24°C° 0.8 mm 0 mps 750 mmHg 97%

    28 April, Sunday

    Time Temperature Precipitation Wind Pressure Humidity
    00:00 +24°C° 0.8 mm 0 mps 750 mmHg 97%
    01:00 +24°C° 0.8 mm 0 mps 750 mmHg 97%
    02:00 +24°C° 0.3 mm 0 mps 750 mmHg 97%
    03:00 +24°C° 0.3 mm 0 mps 749 mmHg 97%
    04:00 +24°C° 0.3 mm 0 mps 749 mmHg 97%
    05:00 +24°C° 0.1 mm 0 mps 750 mmHg 97%
    06:00 +24°C° 0.1 mm 0 mps 750 mmHg 96%
    07:00 +24°C° 0.1 mm 0 mps 751 mmHg 96%
    08:00 +25°C° 0.2 mm 0 mps 751 mmHg 93%
    09:00 +26°C° 0.2 mm 0 mps 751 mmHg 91%
    10:00 +27°C° 0.2 mm 0 mps 751 mmHg 88%
    11:00 +29°C° 0.7 mm 1 mps 751 mmHg 86%
    12:00 +30°C° 0.7 mm 1 mps 750 mmHg 84%
    13:00 +30°C° 0.7 mm 1 mps 749 mmHg 82%
    14:00 +30°C° 0.2 mm 1 mps 749 mmHg 84%
    15:00 +30°C° 0.2 mm 1 mps 748 mmHg 85%
    16:00 +30°C° 0.2 mm 1 mps 748 mmHg 86%
    17:00 +29°C° 0.2 mm 1 mps 748 mmHg 90%
    18:00 +26°C° 0.2 mm 0 mps 749 mmHg 93%
    19:00 +25°C° 0.2 mm 0 mps 749 mmHg 97%
    20:00 +25°C° 0 mm 0 mps 749 mmHg 97%
    21:00 +24°C° 0 mm 0 mps 750 mmHg 97%
    22:00 +24°C° 0 mm 0 mps 750 mmHg 97%
    23:00 +24°C° 0.1 mm 0 mps 750 mmHg 97%
    Show more